Regional Weather Roundup
Issued by NWS State College, PA

Home | Current Version | Previous Version | Graphics & Text | Print | Product List | Glossary On
Versions: 1 2 3 4 5 6 7 8 9 10 11 12 13 14 15 16 17 18 19 20 21 22 23 24 25 26 27 28 29 30 31 32 33 34 35 36 37 38 39 40 41 42 43 44 45 46 47 48 49 50
000
ASUS41 KCTP 230503
RWRCTP

REGIONAL WEATHER ROUNDUP
NATIONAL WEATHER SERVICE STATE COLLEGE PA
100 AM EDT SUN JUL 23 2017

Note: "fair" indicates few or no clouds below 12,000 feet with no
significant weather and/or obstructions to visibility.

* = STATION THAT DOES NOT REPORT PRECIPITATION /E.G. RAIN...SNOW...ETC/
    THUNDER OR FOG.

PAZ002>004-007>009-013>016-020>023-029>032-230600-
WESTERN PENNSYLVANIA

CITY           SKY/WX    TMP DP  RH WIND       PRES   REMARKS
ERIE           PTCLDY    71  66  84 CALM      29.76S
MEADVILLE      CLOUDY    72  71  97 CALM      29.80F
FRANKLIN*      CLOUDY    70  66  88 SW6       29.82S
NEW CASTLE     CLOUDY    73  73 100 S5        29.80F
BEAVER COUNTY  NOT AVBL
BUTLER*        CLOUDY    73  70  88 SW7       29.82R
PITTSBURGH INT CLOUDY    73  73 100 SW8       29.81S
PITTSBURGH     CLOUDY    72  69  90 S7        29.81F
INDIANA*       CLOUDY    73  72  94 W7        29.85S
LATROBE        CLOUDY    72  72 100 SW8       29.83F
WASHINGTON CO* CLOUDY    70  70 100 CALM      29.83S
$$

PAZ004>006-010>012-017>019-024>028-033>037-041-042-045-046-049>053-230600-
CENTRAL PENNSYLVANIA

CITY           SKY/WX    TMP DP  RH WIND       PRES   REMARKS
BRADFORD       CLOUDY    67  67 100 CALM      29.84F FOG
DUBOIS         CLOUDY    70  68  93 W6        29.82S FOG
CLEARFIELD     LGT RAIN  68  68 100 N5        29.83R
JOHNSTOWN      CLOUDY    69  69 100 W6        29.86F FOG
ALTOONA        CLOUDY    71  70  96 SW5       29.83R
STATE COLLEGE  HVY RAIN  69  68  98 CALM      29.81S
WILLIAMSPORT   CLOUDY    72  71  97 NW3       29.76S
SELINSGROVE    CLOUDY    71  70  96 CALM      29.78S FOG
FT INDIANTOWN  CLOUDY    70  70 100 CALM      29.76F
CAPITAL CITY   CLOUDY    76  70  82 W3        29.75F
HARRISBURG     CLOUDY    76  73  91 NW6       29.75F
YORK           CLOUDY    74  72  93 CALM      29.77F
$$

PAZ038>040-043-044-047-048-054-055-060>062-067>071-230600-
EASTERN PENNSYLVANIA

CITY           SKY/WX    TMP DP  RH WIND       PRES   REMARKS
SCRANTON       CLOUDY    71  70  96 CALM      29.79S
MOUNT POCONO   CLOUDY    67  66  97 NE7       29.82F
ALLENTOWN      CLOUDY    72  68  87 CALM      29.76S
QUAKERTOWN*    CLOUDY    72  72 100 N3        29.77S
READING        PTCLDY    71  71 100 N3        29.75F
LANCASTER      CLOUDY    76  73  91 W6        29.76S
COATESVILLE    CLOUDY    73  70  88 VRB3      29.79R
POTTSTOWN      LGT RAIN  71  71 100 CALM      29.77F FOG
BLUE BELL      CLOUDY    72  72 100 CALM      29.76F
DOYLESTOWN     MOCLDY    71  70  96 CALM      29.75S
WILLOW GROVE   NOT AVBL
NORTH PHILA    CLOUDY    77  73  87 NW7       29.75S
PHILADELPHIA   CLOUDY    80  70  71 SW13      29.75S
$$




USA.gov is the U.S. government's official web portal to all federal, state and local government web resources and services.